Weather History for Kozani, Greece

Change the Weather History Date:

Saturday, November 17, 2012

  Actual Average Record
Temperature  
Mean Temperature 50 °F -  
Max Temperature 55 °F - - ()
Min Temperature 44 °F - - ()
Degree Days  
Heating Degree Days 16    
Moisture  
Dew Point 44 °F    
Average Humidity 80    
Maximum Humidity 87    
Minimum Humidity 67    
Precipitation  
Precipitation 0.00 in - - ()
Sea Level Pressure  
Sea Level Pressure 30.14 in    
Wind  
Wind Speed 2 mph ()    
Max Wind Speed 5 mph    
Max Gust Speed -    
Visibility 6.2 miles    
Events Rain    
T = Trace of Precipitation, MM = Missing Value Source: Averaged Metar Reports

Daily Weather History Graph

Daily Weather History Graph

Search for Another Location

Airport:

Trip Planner

Search our weather history database for the weather conditions in past years. The results will help you decide how hot, cold, wet, or windy it might be!

Date:

Astronomy

Nov. 17, 2012 Rise Set
Actual Time 7:20 AM EET 5:13 PM EET
Civil Twilight 6:51 AM EET 5:43 PM EET
Nautical Twilight 6:18 AM EET 6:16 PM EET
Astronomical Twilight 5:46 AM EET 6:48 PM EET
Moon 10:51 AM EET (11/17) 9:02 PM EET (11/17)
Length of Visible Light 10h 51m
Length of Day
9h 52m
Waxing Crescent, 17% of the Moon is Illuminated
Nov 17
Waxing Crescent
Nov 20
First Quarter
Nov 28
Full
Dec 6
Last Quarter
Dec 13
New

Hourly Weather History & Observations

Time (EET) Temp. Dew Point Humidity Pressure Visibility Wind Dir Wind Speed Gust Speed Precip Events Conditions
12:20 AM 44.6 °F 41.0 °F 87% 30.18 in - Variable 2.3 mph - N/A   Unknown
12:50 AM 46.4 °F 41.0 °F 81% 30.18 in - Variable 2.3 mph - N/A   Unknown
1:20 AM 46.4 °F 41.0 °F 81% 30.18 in - Variable 2.3 mph - N/A   Unknown
1:50 AM 48.2 °F 42.8 °F 82% 30.18 in - Variable 3.5 mph - N/A   Unknown
2:20 AM 48.2 °F 42.8 °F 82% 30.18 in - NW 4.6 mph - N/A   Unknown
2:50 AM 48.2 °F 42.8 °F 82% 30.18 in - NW 4.6 mph - N/A   Unknown
3:20 AM 48.2 °F 42.8 °F 82% 30.15 in - NW 4.6 mph - N/A   Unknown
3:50 AM 48.2 °F 42.8 °F 82% 30.15 in - Calm Calm - N/A   Unknown
4:20 AM 48.2 °F 42.8 °F 82% 30.15 in - Variable 2.3 mph - N/A   Unknown
4:50 AM 48.2 °F 42.8 °F 82% 30.15 in - North 4.6 mph - N/A   Unknown
5:20 AM 48.2 °F 42.8 °F 82% 30.15 in - Variable 2.3 mph - N/A   Unknown
5:50 AM 48.2 °F 42.8 °F 82% 30.15 in - Variable 2.3 mph - N/A   Unknown
6:20 AM 48.2 °F 42.8 °F 82% 30.15 in - Variable 2.3 mph - N/A   Unknown
6:50 AM 48.2 °F 42.8 °F 82% 30.15 in - Variable 2.3 mph - N/A   Unknown
7:20 AM 48.2 °F 42.8 °F 82% 30.15 in - Variable 3.5 mph - N/A   Unknown
7:50 AM 48.2 °F 42.8 °F 82% 30.15 in 6.2 mi Calm Calm - N/A   Mostly Cloudy
8:50 AM 48.2 °F 42.8 °F 82% 30.15 in 6.2 mi Calm Calm - N/A   Mostly Cloudy
9:50 AM 50.0 °F 44.6 °F 82% 30.15 in 6.2 mi Calm Calm - N/A   Mostly Cloudy
10:50 AM 51.8 °F 44.6 °F 76% 30.15 in 6.2 mi Calm Calm - N/A   Mostly Cloudy
11:50 AM 51.8 °F 44.6 °F 76% 30.15 in 6.2 mi Calm Calm - N/A   Mostly Cloudy
12:50 PM 55.4 °F 44.6 °F 67% 30.12 in 6.2 mi NNW 4.6 mph - N/A   Scattered Clouds
1:50 PM 53.6 °F 44.6 °F 72% 30.12 in 6.2 mi Calm Calm - N/A   Mostly Cloudy
2:20 PM 53.6 °F 44.6 °F 72% 30.12 in - SE 4.6 mph - N/A Rain Light Rain
2:50 PM 55.4 °F 46.4 °F 72% 30.09 in - Variable 1.2 mph - N/A   Unknown
3:20 PM 53.6 °F 44.6 °F 72% 30.09 in - Variable 1.2 mph - N/A   Unknown
3:50 PM 51.8 °F 44.6 °F 76% 30.12 in - Variable 3.5 mph - N/A Rain Light Rain
4:20 PM 51.8 °F 44.6 °F 76% 30.12 in - Variable 2.3 mph - N/A   Unknown
4:50 PM 51.8 °F 44.6 °F 76% 30.12 in - Variable 2.3 mph - N/A   Unknown
5:20 PM 51.8 °F 44.6 °F 76% 30.09 in - Variable 2.3 mph - N/A   Unknown
5:50 PM 50.0 °F 44.6 °F 82% 30.12 in - Variable 3.5 mph - N/A   Unknown
6:20 PM 50.0 °F 44.6 °F 82% 30.12 in - Variable 2.3 mph - N/A   Unknown
6:50 PM 50.0 °F 44.6 °F 82% 30.12 in - Variable 3.5 mph - N/A   Unknown
7:20 PM 50.0 °F 44.6 °F 82% 30.12 in - Variable 2.3 mph - N/A   Unknown
7:50 PM 50.0 °F 44.6 °F 82% 30.12 in - Variable 1.2 mph - N/A   Unknown
8:20 PM 50.0 °F 44.6 °F 82% 30.12 in - Variable 3.5 mph - N/A   Unknown
8:50 PM 50.0 °F 44.6 °F 82% 30.12 in - Variable 2.3 mph - N/A   Unknown
9:20 PM 50.0 °F 44.6 °F 82% 30.12 in - Variable 3.5 mph - N/A   Unknown
9:50 PM 50.0 °F 44.6 °F 82% 30.12 in - Variable 2.3 mph - N/A   Unknown
10:20 PM 50.0 °F 44.6 °F 82% 30.12 in - Calm Calm - N/A   Unknown
10:50 PM 48.2 °F 44.6 °F 87% 30.12 in - Variable 1.2 mph - N/A   Unknown
11:20 PM 48.2 °F 42.8 °F 82% 30.12 in - Calm Calm - N/A   Unknown
11:50 PM 48.2 °F 44.6 °F 87% 30.12 in - Calm Calm - N/A   Unknown